map of CBB home
Great Circle Mapper logo
CBB - Airport
Location
City:  Cochabamba, Cercado, Cochabamba, Bolivia
Name:Jórge Wilsterman International Airport
ICAO / IATA:SLCB / CBB

Details
Type:Airport (Aerodrome, Airfield)
Use:Public/Civil, Military, International (customs port of entry)
Latitude:17°25'16"S (-17.421057)
Longitude:66°10'38"W (-66.177113)
Datum:WGS 1984
Elevation:8360 ft (2548 m)
Variation:8.94°W (WMM2015 magnetic declination)
-0.19° annual change
Runways:2
Longest:12460 × 148 ft (3798 × 45 m), paved

Time
Time Zone:UTC-4
Local Time:

Weather
METAR:SLCB 012300Z 17003KT 9999 NSC 20/01 Q1021

Related Locations
Nearby:
Farthest:ZJYX: 12339 mi / 19858 km
Yongxing Dao, Xisha Islands (Woody Island, Paracel Islands), CN

Find:

   beyond  
but within

Other Information
Maps:
NOTAMs:
Links:
Sources:

  
flag of Bolivia
flag of Cochabamba
  

Sectional Chart

Flight Planning
at skyvector.com

Satellite Image

Google Maps Satellite view

 

Copyright © 2004-2015 Karl L. Swartz. All rights reserved.
The Great Circle Mapper name and logo are trademarks of the Great Circle Mapper.
All other trademarks mentioned herein belong to their respective owners.
Please see credits for attibutions and further copyright information.

  Follow gcmap on Facebook Follow gcmap on Twitter Follow gcmap on Google+

hCard Microformat

Geo Microformat